ARG1422 SABE-SAME

Flight info

Callsign ARG1422
Flight time 1h 42m
Altitude 38000
Route PAL9 NEPIS DCT NIN UL405 PAPIR PAPIR2U
Aircraft B738/M-MSDFGHILRVW/LB1

Departure

Time 2026-04-26 20:02
Airport Aeroparque Jorge Newbery (SABE)

Arrival

Time 2026-04-26 21:44
Airport Governor Francisco Gabrielli International Airport (SAME)
Time Latitude Longitude Altitude Speed Heading
2026-04-26 19:09 -34.55717 -58.41403 25 ft 0 kts 31°
2026-04-26 19:51 -34.55724 -58.41408 29 ft 2 kts 29°
2026-04-26 19:51 -34.55738 -58.41417 27 ft 2 kts 23°
2026-04-26 19:51 -34.55754 -58.41422 29 ft 2 kts 345°
2026-04-26 19:51 -34.55766 -58.41413 30 ft 1 kts 306°
2026-04-26 19:52 -34.55767 -58.41410 30 ft 0 kts 305°
2026-04-26 19:55 -34.55757 -58.41427 26 ft 6 kts 305°
2026-04-26 19:55 -34.55726 -58.41495 27 ft 10 kts 294°
2026-04-26 19:55 -34.55744 -58.41568 26 ft 10 kts 216°
2026-04-26 19:55 -34.55805 -58.41579 26 ft 10 kts 140°
2026-04-26 19:56 -34.55839 -58.41508 28 ft 11 kts 116°
2026-04-26 19:56 -34.55879 -58.41410 27 ft 16 kts 117°
2026-04-26 19:56 -34.55937 -58.41282 28 ft 18 kts 124°
2026-04-26 19:56 -34.56000 -58.41180 26 ft 14 kts 128°
2026-04-26 19:57 -34.56059 -58.41088 28 ft 14 kts 127°
2026-04-26 19:57 -34.56114 -58.40998 26 ft 13 kts 125°
2026-04-26 19:57 -34.56163 -58.40905 25 ft 14 kts 116°
2026-04-26 19:57 -34.56193 -58.40791 25 ft 14 kts 124°
2026-04-26 19:58 -34.56248 -58.40694 26 ft 14 kts 124°
2026-04-26 19:58 -34.56300 -58.40602 27 ft 11 kts 127°
2026-04-26 19:58 -34.56348 -58.40543 25 ft 10 kts 138°
2026-04-26 19:58 -34.56392 -58.40495 27 ft 7 kts 138°
2026-04-26 19:59 -34.56409 -58.40476 26 ft 2 kts 137°
2026-04-26 19:59 -34.56410 -58.40475 25 ft 0 kts 137°
2026-04-26 19:59 -34.56433 -58.40449 24 ft 9 kts 137°
2026-04-26 20:00 -34.56489 -58.40389 26 ft 10 kts 140°
2026-04-26 20:00 -34.56547 -58.40402 27 ft 6 kts 211°
2026-04-26 20:00 -34.56570 -58.40427 28 ft 3 kts 254°
2026-04-26 20:00 -34.56562 -58.40446 25 ft 2 kts 308°
2026-04-26 20:01 -34.56561 -58.40448 27 ft 0 kts 307°
2026-04-26 20:01 -34.56548 -58.40468 26 ft 17 kts 308°
2026-04-26 20:02 -34.56319 -58.40871 25 ft 97 kts 304°
2026-04-26 20:02 -34.55810 -58.41779 58 ft 157 kts 306°
2026-04-26 20:02 -34.55183 -58.42906 795 ft 164 kts 297°
2026-04-26 20:02 -34.54964 -58.43291 1108 ft 165 kts 298°
2026-04-26 20:03 -34.52979 -58.44291 2018 ft 236 kts
2026-04-26 20:03 -34.51428 -58.43329 2518 ft 268 kts 40°
2026-04-26 20:03 -34.50051 -58.41656 2965 ft 289 kts 40°
2026-04-26 20:03 -34.48470 -58.40104 3887 ft 293 kts 32°
2026-04-26 20:04 -34.46777 -58.38730 4997 ft 293 kts 28°
2026-04-26 20:04 -34.45060 -58.37367 5983 ft 298 kts 28°
2026-04-26 20:04 -34.43392 -58.35904 6903 ft 306 kts 41°
2026-04-26 20:04 -34.42182 -58.33752 7809 ft 315 kts 68°
2026-04-26 20:05 -34.41769 -58.31158 8699 ft 317 kts 95°
2026-04-26 20:05 -34.42233 -58.28590 9600 ft 311 kts 121°
2026-04-26 20:05 -34.43474 -58.26504 10338 ft 306 kts 146°
2026-04-26 20:05 -34.45301 -58.25153 10572 ft 314 kts 170°
2026-04-26 20:06 -34.47480 -58.24816 10785 ft 321 kts 193°
2026-04-26 20:06 -34.49593 -58.25610 11299 ft 319 kts 216°
2026-04-26 20:06 -34.51171 -58.27372 12105 ft 312 kts 238°
2026-04-26 20:06 -34.52100 -58.29709 13116 ft 307 kts 251°
2026-04-26 20:07 -34.52802 -58.32154 14050 ft 307 kts 252°
2026-04-26 20:07 -34.53485 -58.34586 15005 ft 302 kts 252°
2026-04-26 20:07 -34.54158 -58.36976 16060 ft 296 kts 253°
2026-04-26 20:07 -34.54823 -58.39316 17074 ft 292 kts 253°
2026-04-26 20:08 -34.55485 -58.41633 18015 ft 289 kts 254°
2026-04-26 20:08 -34.56146 -58.43935 18736 ft 290 kts 254°
2026-04-26 20:08 -34.56808 -58.46240 19249 ft 296 kts 253°
2026-04-26 20:08 -34.57491 -58.48613 19827 ft 299 kts 253°
2026-04-26 20:09 -34.58180 -58.51005 20427 ft 302 kts 253°
2026-04-26 20:09 -34.58876 -58.53421 21005 ft 305 kts 253°
2026-04-26 20:09 -34.59581 -58.55867 21577 ft 308 kts 253°
2026-04-26 20:09 -34.60291 -58.58337 22122 ft 311 kts 253°
2026-04-26 20:10 -34.60910 -58.60855 22655 ft 313 kts 259°
2026-04-26 20:10 -34.61126 -58.63498 23168 ft 317 kts 268°
2026-04-26 20:10 -34.61052 -58.66190 23647 ft 321 kts 269°
2026-04-26 20:10 -34.60941 -58.68878 24046 ft 324 kts 270°
2026-04-26 20:11 -34.60821 -58.71627 24456 ft 327 kts 270°
2026-04-26 20:11 -34.60701 -58.74397 24860 ft 330 kts 270°
2026-04-26 20:11 -34.60584 -58.77194 25270 ft 333 kts 270°
2026-04-26 20:12 -34.60392 -58.81900 25896 ft 338 kts 270°
2026-04-26 20:12 -34.60278 -58.84762 26266 ft 341 kts 270°
2026-04-26 20:12 -34.60163 -58.87647 26623 ft 344 kts 270°
2026-04-26 20:12 -34.60010 -58.91508 27082 ft 348 kts 270°
2026-04-26 20:13 -34.59931 -58.93492 27312 ft 349 kts 270°
2026-04-26 20:13 -34.59774 -58.97415 27757 ft 353 kts 270°
2026-04-26 20:13 -34.59693 -58.99428 27982 ft 355 kts 270°
2026-04-26 20:13 -34.59572 -59.02430 28303 ft 357 kts 270°
2026-04-26 20:14 -34.59450 -59.05413 28614 ft 360 kts 270°
2026-04-26 20:14 -34.59326 -59.08455 28921 ft 362 kts 270°
2026-04-26 20:14 -34.59200 -59.11518 29245 ft 364 kts 270°
2026-04-26 20:14 -34.59073 -59.14585 29683 ft 364 kts 270°
2026-04-26 20:15 -34.58945 -59.17639 30148 ft 362 kts 270°
2026-04-26 20:15 -34.58817 -59.20685 30497 ft 362 kts 270°
2026-04-26 20:15 -34.58647 -59.24726 30914 ft 362 kts 270°
2026-04-26 20:15 -34.58559 -59.26791 31145 ft 362 kts 270°
2026-04-26 20:16 -34.58431 -59.29802 31497 ft 362 kts 270°
2026-04-26 20:16 -34.58300 -59.32848 31829 ft 362 kts 270°
2026-04-26 20:16 -34.58169 -59.35900 32151 ft 362 kts 271°
2026-04-26 20:16 -34.58037 -59.38948 32476 ft 362 kts 271°
2026-04-26 20:17 -34.57904 -59.42003 32804 ft 362 kts 271°
2026-04-26 20:17 -34.57770 -59.45054 33136 ft 362 kts 271°
2026-04-26 20:17 -34.57635 -59.48104 33465 ft 362 kts 271°
2026-04-26 20:17 -34.57501 -59.51152 33775 ft 362 kts 271°
2026-04-26 20:18 -34.57365 -59.54202 34066 ft 362 kts 271°
2026-04-26 20:18 -34.57228 -59.57256 34324 ft 362 kts 271°
2026-04-26 20:18 -34.57093 -59.60262 34576 ft 362 kts 271°
2026-04-26 20:18 -34.56999 -59.63316 34836 ft 362 kts 270°
2026-04-26 20:19 -34.56944 -59.66373 35085 ft 362 kts 269°
2026-04-26 20:19 -34.56901 -59.69423 35334 ft 362 kts 269°
2026-04-26 20:19 -34.56858 -59.72477 35600 ft 362 kts 269°
2026-04-26 20:19 -34.56811 -59.75533 35831 ft 362 kts 269°
2026-04-26 20:20 -34.56761 -59.78584 36076 ft 362 kts 269°
2026-04-26 20:20 -34.56708 -59.81641 36320 ft 362 kts 270°
2026-04-26 20:20 -34.56652 -59.84698 36556 ft 362 kts 270°
2026-04-26 20:20 -34.56595 -59.87752 36790 ft 362 kts 270°
2026-04-26 20:21 -34.56536 -59.90763 37006 ft 363 kts 270°
2026-04-26 20:21 -34.56476 -59.93829 37169 ft 364 kts 270°
2026-04-26 20:21 -34.56415 -59.96909 37314 ft 366 kts 270°
2026-04-26 20:21 -34.56353 -60.00000 37498 ft 367 kts 270°
2026-04-26 20:22 -34.56290 -60.03089 37717 ft 366 kts 270°
2026-04-26 20:22 -34.56226 -60.06179 37941 ft 366 kts 270°
2026-04-26 20:22 -34.56161 -60.09273 37942 ft 368 kts 270°
2026-04-26 20:23 -34.56029 -60.15461 37963 ft 366 kts 270°
2026-04-26 20:23 -34.55892 -60.21633 37961 ft 365 kts 270°
2026-04-26 20:24 -34.55757 -60.27735 37972 ft 364 kts 270°
2026-04-26 20:24 -34.55617 -60.33864 37981 ft 363 kts 270°
2026-04-26 20:25 -34.55475 -60.39986 37986 ft 363 kts 270°
2026-04-26 20:25 -34.55329 -60.46114 37991 ft 363 kts 270°
2026-04-26 20:26 -34.55180 -60.52244 37995 ft 364 kts 270°
2026-04-26 20:26 -34.55028 -60.58351 37997 ft 365 kts 270°
2026-04-26 20:27 -34.54872 -60.64510 38003 ft 366 kts 270°
2026-04-26 20:27 -34.54713 -60.70689 38010 ft 367 kts 270°
2026-04-26 20:28 -34.54550 -60.76874 38012 ft 367 kts 270°
2026-04-26 20:28 -34.54384 -60.83075 38013 ft 368 kts 270°
2026-04-26 20:29 -34.54214 -60.89288 38026 ft 369 kts 270°
2026-04-26 20:29 -34.54119 -60.92424 38022 ft 369 kts 271°
2026-04-26 20:30 -34.53994 -60.94188 38021 ft 370 kts 274°
2026-04-26 20:31 -34.53057 -61.00308 38015 ft 372 kts 277°
2026-04-26 20:31 -34.52061 -61.06463 38040 ft 372 kts 277°
2026-04-26 20:32 -34.51062 -61.12615 38032 ft 372 kts 277°
2026-04-26 20:32 -34.50062 -61.18765 38033 ft 372 kts 277°
2026-04-26 20:33 -34.49062 -61.24904 38039 ft 371 kts 277°
2026-04-26 20:33 -34.48058 -61.31041 38045 ft 371 kts 277°
2026-04-26 20:34 -34.47060 -61.37128 38052 ft 371 kts 277°
2026-04-26 20:34 -34.46051 -61.43258 38059 ft 371 kts 277°
2026-04-26 20:35 -34.45041 -61.49380 38061 ft 371 kts 277°
2026-04-26 20:35 -34.44026 -61.55505 38067 ft 371 kts 277°
2026-04-26 20:36 -34.43007 -61.61630 38066 ft 371 kts 277°
2026-04-26 20:36 -34.41992 -61.67711 38064 ft 371 kts 277°
2026-04-26 20:37 -34.40967 -61.73834 38070 ft 371 kts 277°
2026-04-26 20:37 -34.39939 -61.79961 38069 ft 371 kts 277°
2026-04-26 20:38 -34.38908 -61.86086 38080 ft 372 kts 277°
2026-04-26 20:38 -34.37872 -61.92221 38080 ft 372 kts 277°
2026-04-26 20:39 -34.36832 -61.98357 38083 ft 372 kts 277°
2026-04-26 20:39 -34.35797 -62.04455 38088 ft 373 kts 277°
2026-04-26 20:40 -34.34749 -62.10603 38089 ft 373 kts 277°
2026-04-26 20:40 -34.33695 -62.16752 38094 ft 373 kts 277°
2026-04-26 20:41 -34.32638 -62.22907 38093 ft 374 kts 277°
2026-04-26 20:41 -34.31578 -62.29060 38099 ft 374 kts 277°
2026-04-26 20:42 -34.30522 -62.35174 38100 ft 374 kts 277°
2026-04-26 20:42 -34.29454 -62.41335 38103 ft 374 kts 277°
2026-04-26 20:43 -34.28385 -62.47490 38110 ft 374 kts 277°
2026-04-26 20:43 -34.27312 -62.53643 38111 ft 374 kts 277°
2026-04-26 20:44 -34.26235 -62.59799 38114 ft 374 kts 277°
2026-04-26 20:44 -34.25163 -62.65909 38115 ft 374 kts 277°
2026-04-26 20:45 -34.24080 -62.72068 38116 ft 375 kts 277°
2026-04-26 20:45 -34.22993 -62.78224 38120 ft 375 kts 277°
2026-04-26 20:46 -34.21903 -62.84383 38126 ft 375 kts 277°
2026-04-26 20:46 -34.20808 -62.90543 38126 ft 375 kts 277°
2026-04-26 20:47 -34.19710 -62.96708 38129 ft 375 kts 277°
2026-04-26 20:47 -34.18610 -63.02868 38133 ft 375 kts 277°
2026-04-26 20:48 -34.17512 -63.08990 38136 ft 376 kts 277°
2026-04-26 20:48 -34.16404 -63.15158 38136 ft 376 kts 277°
2026-04-26 20:49 -34.15291 -63.21329 38130 ft 376 kts 277°
2026-04-26 20:49 -34.14176 -63.27497 38144 ft 376 kts 277°
2026-04-26 20:50 -34.13057 -63.33671 38138 ft 377 kts 277°
2026-04-26 20:50 -34.11939 -63.39807 38151 ft 377 kts 277°
2026-04-26 20:51 -34.10810 -63.45985 38154 ft 377 kts 277°
2026-04-26 20:51 -34.09678 -63.52169 38152 ft 378 kts 277°
2026-04-26 20:52 -34.08541 -63.58357 38146 ft 378 kts 277°
2026-04-26 20:52 -34.07402 -63.64544 38154 ft 378 kts 277°
2026-04-26 20:53 -34.06258 -63.70736 38156 ft 378 kts 277°
2026-04-26 20:53 -34.05113 -63.76923 38158 ft 378 kts 277°
2026-04-26 20:54 -34.03971 -63.83073 38164 ft 378 kts 277°
2026-04-26 20:54 -34.02817 -63.89260 38164 ft 379 kts 277°
2026-04-26 20:55 -34.01658 -63.95452 38167 ft 379 kts 277°
2026-04-26 20:55 -34.00496 -64.01645 38167 ft 379 kts 277°
2026-04-26 20:56 -33.99331 -64.07843 38169 ft 379 kts 277°
2026-04-26 20:56 -33.98162 -64.14042 38171 ft 380 kts 277°
2026-04-26 20:57 -33.96997 -64.20200 38173 ft 380 kts 277°
2026-04-26 20:57 -33.95820 -64.26406 38178 ft 380 kts 277°
2026-04-26 20:58 -33.94639 -64.32615 38176 ft 380 kts 278°
2026-04-26 20:58 -33.93455 -64.38823 38177 ft 380 kts 278°
2026-04-26 20:59 -33.92269 -64.45025 38177 ft 380 kts 278°
2026-04-26 20:59 -33.91084 -64.51193 38179 ft 381 kts 278°
2026-04-26 21:00 -33.89815 -64.57381 38180 ft 381 kts 279°
2026-04-26 21:00 -33.88521 -64.63567 38182 ft 381 kts 279°
2026-04-26 21:01 -33.87232 -64.69759 38189 ft 381 kts 279°
2026-04-26 21:01 -33.85944 -64.75951 38188 ft 381 kts 279°
2026-04-26 21:02 -33.84662 -64.82098 38190 ft 382 kts 279°
2026-04-26 21:02 -33.83374 -64.88290 38193 ft 382 kts 279°
2026-04-26 21:03 -33.82084 -64.94483 38205 ft 382 kts 279°
2026-04-26 21:03 -33.80790 -65.00676 38208 ft 382 kts 279°
2026-04-26 21:04 -33.79501 -65.06831 38198 ft 382 kts 279°
2026-04-26 21:04 -33.78200 -65.13025 38213 ft 382 kts 279°
2026-04-26 21:05 -33.76896 -65.19220 38206 ft 382 kts 279°
2026-04-26 21:05 -33.75589 -65.25410 38210 ft 382 kts 279°
2026-04-26 21:06 -33.74278 -65.31608 38210 ft 383 kts 279°
2026-04-26 21:06 -33.72961 -65.37810 38208 ft 383 kts 279°
2026-04-26 21:07 -33.71565 -65.43945 38208 ft 384 kts 281°
2026-04-26 21:07 -33.70096 -65.50114 38212 ft 384 kts 281°
2026-04-26 21:08 -33.68631 -65.56279 38214 ft 384 kts 281°
2026-04-26 21:08 -33.67170 -65.62448 38216 ft 384 kts 281°
2026-04-26 21:09 -33.65719 -65.68576 38216 ft 384 kts 281°
2026-04-26 21:09 -33.64256 -65.74744 38221 ft 384 kts 281°
2026-04-26 21:10 -33.62788 -65.80917 38214 ft 384 kts 281°
2026-04-26 21:10 -33.61319 -65.87081 38217 ft 384 kts 281°
2026-04-26 21:11 -33.59856 -65.93202 38217 ft 384 kts 281°
2026-04-26 21:11 -33.58383 -65.99356 38216 ft 384 kts 281°
2026-04-26 21:12 -33.56905 -66.05509 38212 ft 384 kts 281°
2026-04-26 21:12 -33.55424 -66.11664 38214 ft 384 kts 281°
2026-04-26 21:13 -33.53942 -66.17809 38210 ft 384 kts 281°
2026-04-26 21:13 -33.52461 -66.23936 38206 ft 385 kts 281°
2026-04-26 21:14 -33.50968 -66.30099 38199 ft 385 kts 281°
2026-04-26 21:14 -33.49463 -66.36299 37745 ft 389 kts 281°
2026-04-26 21:14 -33.48658 -66.39387 37250 ft 390 kts 284°
2026-04-26 21:15 -33.47708 -66.42409 36733 ft 387 kts 285°
2026-04-26 21:15 -33.46736 -66.45420 36135 ft 387 kts 285°
2026-04-26 21:15 -33.45764 -66.48427 35606 ft 386 kts 285°
2026-04-26 21:15 -33.44805 -66.51414 35172 ft 383 kts 285°
2026-04-26 21:16 -33.43872 -66.54339 34739 ft 380 kts 285°
2026-04-26 21:16 -33.42934 -66.57284 34304 ft 377 kts 285°
2026-04-26 21:16 -33.42027 -66.60216 33821 ft 374 kts 282°
2026-04-26 21:16 -33.41262 -66.63169 33356 ft 370 kts 281°
2026-04-26 21:17 -33.40546 -66.66106 32938 ft 365 kts 280°
2026-04-26 21:17 -33.39849 -66.69015 32508 ft 362 kts 280°
2026-04-26 21:17 -33.39157 -66.71899 32107 ft 358 kts 280°
2026-04-26 21:17 -33.38469 -66.74744 31693 ft 355 kts 280°
2026-04-26 21:18 -33.37785 -66.77561 31316 ft 362 kts 280°
2026-04-26 21:18 -33.37074 -66.80486 30900 ft 369 kts 281°
2026-04-26 21:18 -33.36354 -66.83420 30478 ft 366 kts 281°
2026-04-26 21:18 -33.35636 -66.86328 30024 ft 363 kts 281°
2026-04-26 21:19 -33.34920 -66.89220 29569 ft 360 kts 281°
2026-04-26 21:19 -33.34214 -66.92073 29141 ft 356 kts 281°
2026-04-26 21:19 -33.33513 -66.94900 28723 ft 353 kts 281°
2026-04-26 21:19 -33.32819 -66.97702 28290 ft 350 kts 280°
2026-04-26 21:20 -33.32138 -67.00450 27881 ft 348 kts 280°
2026-04-26 21:20 -33.31452 -67.03215 27452 ft 346 kts 280°
2026-04-26 21:20 -33.30769 -67.05965 27030 ft 344 kts 280°
2026-04-26 21:20 -33.30090 -67.08701 26621 ft 342 kts 280°
2026-04-26 21:21 -33.29412 -67.11423 26216 ft 341 kts 280°
2026-04-26 21:21 -33.28738 -67.14132 25808 ft 340 kts 280°
2026-04-26 21:21 -33.28065 -67.16832 25408 ft 339 kts 280°
2026-04-26 21:21 -33.27394 -67.19524 25004 ft 338 kts 280°
2026-04-26 21:22 -33.26723 -67.22209 24601 ft 337 kts 281°
2026-04-26 21:22 -33.26061 -67.24851 24211 ft 336 kts 281°
2026-04-26 21:22 -33.25374 -67.27522 23806 ft 337 kts 282°
2026-04-26 21:23 -33.24038 -67.32232 22988 ft 336 kts 283°
2026-04-26 21:23 -33.23277 -67.34862 22566 ft 335 kts 283°
2026-04-26 21:23 -33.22520 -67.37483 22159 ft 333 kts 283°
2026-04-26 21:23 -33.21770 -67.40087 21759 ft 331 kts 283°
2026-04-26 21:24 -33.21026 -67.42682 21349 ft 329 kts 283°
2026-04-26 21:24 -33.20287 -67.45265 20967 ft 328 kts 283°
2026-04-26 21:24 -33.19561 -67.47802 20576 ft 327 kts 283°
2026-04-26 21:24 -33.18830 -67.50358 20192 ft 325 kts 283°
2026-04-26 21:25 -33.18099 -67.52914 19802 ft 324 kts 283°
2026-04-26 21:25 -33.17371 -67.55460 19423 ft 324 kts 283°
2026-04-26 21:25 -33.16643 -67.57999 19026 ft 323 kts 283°
2026-04-26 21:25 -33.15917 -67.60534 18637 ft 323 kts 283°
2026-04-26 21:26 -33.15190 -67.63065 18214 ft 322 kts 283°
2026-04-26 21:26 -33.14465 -67.65594 17790 ft 322 kts 283°
2026-04-26 21:26 -33.13741 -67.68113 17375 ft 321 kts 283°
2026-04-26 21:26 -33.13027 -67.70591 16980 ft 319 kts 284°
2026-04-26 21:27 -33.12306 -67.73094 16585 ft 318 kts 284°
2026-04-26 21:27 -33.11528 -67.75563 16185 ft 320 kts 291°
2026-04-26 21:27 -33.10367 -67.77846 15825 ft 323 kts 298°
2026-04-26 21:27 -33.09096 -67.80053 15441 ft 322 kts 300°
2026-04-26 21:28 -33.07819 -67.82248 15062 ft 322 kts 300°
2026-04-26 21:28 -33.06550 -67.84445 14681 ft 321 kts 300°
2026-04-26 21:28 -33.05295 -67.86641 14304 ft 321 kts 300°
2026-04-26 21:28 -33.04043 -67.88846 13906 ft 321 kts 300°
2026-04-26 21:29 -33.02814 -67.91020 13479 ft 320 kts 300°
2026-04-26 21:29 -33.01570 -67.93224 13077 ft 320 kts 301°
2026-04-26 21:29 -33.00332 -67.95420 12674 ft 320 kts 301°
2026-04-26 21:29 -32.99090 -67.97623 12280 ft 319 kts 301°
2026-04-26 21:30 -32.97855 -67.99814 11888 ft 319 kts 301°
2026-04-26 21:30 -32.96616 -68.02008 11507 ft 319 kts 301°
2026-04-26 21:30 -32.95379 -68.04198 11124 ft 319 kts 301°
2026-04-26 21:30 -32.94580 -68.05614 10865 ft 319 kts 301°
2026-04-26 21:31 -32.92924 -68.08533 10510 ft 312 kts 301°
2026-04-26 21:31 -32.91746 -68.10603 10330 ft 301 kts 301°
2026-04-26 21:31 -32.90593 -68.12627 10192 ft 290 kts 301°
2026-04-26 21:31 -32.89470 -68.14605 9863 ft 287 kts 301°
2026-04-26 21:32 -32.88361 -68.16561 9550 ft 283 kts 301°
2026-04-26 21:32 -32.87263 -68.18493 9236 ft 280 kts 301°
2026-04-26 21:32 -32.86179 -68.20397 8940 ft 276 kts 301°
2026-04-26 21:32 -32.85109 -68.22276 8646 ft 273 kts 301°
2026-04-26 21:33 -32.84049 -68.24137 8360 ft 270 kts 301°
2026-04-26 21:33 -32.83003 -68.25973 8157 ft 264 kts 301°
2026-04-26 21:33 -32.81992 -68.27747 8079 ft 264 kts 301°
2026-04-26 21:33 -32.80953 -68.29569 7989 ft 268 kts 301°
2026-04-26 21:34 -32.79900 -68.31418 7888 ft 272 kts 301°
2026-04-26 21:34 -32.78838 -68.33280 7795 ft 272 kts 301°
2026-04-26 21:34 -32.77779 -68.35138 7700 ft 271 kts 301°
2026-04-26 21:34 -32.76742 -68.36957 7606 ft 271 kts 301°
2026-04-26 21:35 -32.75683 -68.38809 7513 ft 270 kts 301°
2026-04-26 21:35 -32.74628 -68.40655 7423 ft 271 kts 301°
2026-04-26 21:35 -32.73585 -68.42480 7325 ft 271 kts 301°
2026-04-26 21:35 -32.72527 -68.44328 7236 ft 270 kts 301°
2026-04-26 21:36 -32.71472 -68.46172 7145 ft 270 kts 301°
2026-04-26 21:36 -32.70760 -68.47417 7082 ft 269 kts 301°
2026-04-26 21:36 -32.69368 -68.49849 6958 ft 269 kts 302°
2026-04-26 21:36 -32.68311 -68.51693 6785 ft 272 kts 302°
2026-04-26 21:37 -32.67241 -68.53560 6637 ft 274 kts 302°
2026-04-26 21:37 -32.66169 -68.55429 6525 ft 274 kts 302°
2026-04-26 21:37 -32.65098 -68.57295 6427 ft 274 kts 302°
2026-04-26 21:37 -32.64027 -68.59160 6328 ft 273 kts 302°
2026-04-26 21:38 -32.62973 -68.60994 6231 ft 272 kts 302°
2026-04-26 21:38 -32.61924 -68.62817 6133 ft 263 kts 303°
2026-04-26 21:38 -32.61018 -68.64650 6010 ft 253 kts 285°
2026-04-26 21:38 -32.60892 -68.66658 5873 ft 241 kts 258°
2026-04-26 21:39 -32.61383 -68.68526 5681 ft 235 kts 245°
2026-04-26 21:39 -32.62035 -68.70302 5470 ft 235 kts 244°
2026-04-26 21:39 -32.62695 -68.72071 5277 ft 234 kts 244°
2026-04-26 21:39 -32.63340 -68.73828 5090 ft 230 kts 244°
2026-04-26 21:40 -32.63959 -68.75535 4901 ft 222 kts 244°
2026-04-26 21:40 -32.64549 -68.77165 4663 ft 212 kts 243°
2026-04-26 21:40 -32.65397 -68.78496 4471 ft 196 kts 210°
2026-04-26 21:40 -32.66599 -68.79026 4414 ft 177 kts 186°
2026-04-26 21:41 -32.67796 -68.79102 4339 ft 172 kts 178°
2026-04-26 21:41 -32.69001 -68.79108 4262 ft 174 kts 178°
2026-04-26 21:41 -32.70213 -68.79115 4185 ft 174 kts 178°
2026-04-26 21:41 -32.71414 -68.79127 4085 ft 172 kts 178°
2026-04-26 21:42 -32.72603 -68.79140 4005 ft 170 kts 178°
2026-04-26 21:42 -32.73777 -68.79156 3874 ft 167 kts 177°
2026-04-26 21:42 -32.74879 -68.79169 3728 ft 159 kts 178°
2026-04-26 21:42 -32.75982 -68.79184 3507 ft 157 kts 178°
2026-04-26 21:43 -32.77043 -68.79199 3300 ft 150 kts 178°
2026-04-26 21:43 -32.78072 -68.79209 3129 ft 146 kts 178°
2026-04-26 21:43 -32.79091 -68.79223 2923 ft 145 kts 178°
2026-04-26 21:43 -32.80105 -68.79222 2761 ft 147 kts 179°
2026-04-26 21:44 -32.81131 -68.79249 2542 ft 148 kts 180°
2026-04-26 21:44 -32.82147 -68.79272 2363 ft 144 kts 178°
2026-04-26 21:44 -32.83018 -68.79288 2351 ft 101 kts 181°
2026-04-26 21:44 -32.83508 -68.79298 2346 ft 45 kts 181°
2026-04-26 21:45 -32.83805 -68.79304 2351 ft 40 kts 181°
2026-04-26 21:45 -32.84004 -68.79309 2352 ft 14 kts 181°
2026-04-26 21:45 -32.84065 -68.79359 2354 ft 12 kts 270°
2026-04-26 21:45 -32.84051 -68.79458 2350 ft 12 kts 280°
2026-04-26 21:46 -32.84022 -68.79529 2351 ft 9 kts 339°
2026-04-26 21:46 -32.83959 -68.79531 2351 ft 9 kts
2026-04-26 21:46 -32.83880 -68.79529 2349 ft 14 kts
2026-04-26 21:46 -32.83778 -68.79526 2348 ft 16 kts
2026-04-26 21:47 -32.83657 -68.79524 2349 ft 19 kts
2026-04-26 21:47 -32.83522 -68.79521 2349 ft 19 kts
2026-04-26 21:47 -32.83390 -68.79519 2350 ft 19 kts
2026-04-26 21:47 -32.83263 -68.79516 2347 ft 18 kts
2026-04-26 21:48 -32.83140 -68.79513 2348 ft 17 kts
2026-04-26 21:48 -32.83024 -68.79529 2349 ft 17 kts 328°
2026-04-26 21:48 -32.82951 -68.79599 2350 ft 10 kts 320°
2026-04-26 21:48 -32.82931 -68.79674 2351 ft 10 kts 272°
2026-04-26 21:49 -32.82890 -68.79713 2350 ft 8 kts
2026-04-26 21:49 -32.82835 -68.79709 2350 ft 7 kts
2026-04-26 21:49 -32.82802 -68.79723 2349 ft 3 kts 296°
2026-04-26 21:49 -32.82801 -68.79751 2350 ft 4 kts 270°
2026-04-26 21:50 -32.82801 -68.79776 2350 ft 0 kts 270°